STARLINK-36404

Last updated on Thu Mar 05 2026 00:02:08 GMT+0000 (Coordinated Universal Time)

1 67664U 26022S 26063.11636160 .00067585 00000+0 44918-3 0 9991 2 67664 97.2831 96.8479 0001514 77.7975 282.3460 15.75253123 4673
UTC large
Height (km)
Speed (km/s)
/
Latitude / Longitude
Inclination (degrees)
Orbital Period (minutes)
Azimuth
Elevation
Range (km)
Doppler Factor

Next 0 passes for location: London (51.5072 / 0.1276)

Sorry there are no passes over London.